User: anonymous   Login
Location: Wilsall
(45.9940°N, 110.6590°W)
Time: 15:48:20
(UTC-07:00)
Language:

GP-B - Orbit

View from above orbital plane
View from above orbital plane
View from above satellite
View from above satellite

Ground track
Ground track

The orbit data is extracted from the following two-line orbital elements,

1 28230U 04014A   14323.53777526  .00001268  00000-0  17476-3 0  2199
2 28230 089.8794 137.8262 0001777 105.9957 254.1461 14.77758551570138
Epoch (UTC): 19 November 2014 12:54:23
Eccentricity: 0.0001777
inclination: 89.8794°
perigee height: 635 km
apogee height: 637 km
right ascension of ascending node: 137.8262°
argument of perigee: 105.9957°
revolutions per day: 14.77758551
mean anomaly at epoch: 254.1461°
orbit number at epoch: 57013

The dashed part of the orbit path shows where the satellite is in the earth's shadow,  

DLR